,,PressureMeas_1m,,PRMeasQMR101_1,,RHStat155_1m_1,,SRMeasQMS101R_1m,,TAStat155_1m_1,,GenWind_1,,GenWind_1,
2019-05-21, 07:00:06,VALID,917.546,VALID,0.0,VALID,97.368,VALID,37.527,VALID,20.476,VALID,114.0,VALID,0.0,
2019-05-21, 07:01:06,VALID,917.556,VALID,0.0,VALID,97.169,VALID,38.126,VALID,20.52,VALID,119.0,VALID,0.0,
2019-05-21, 07:02:06,VALID,917.546,VALID,0.0,VALID,96.95,VALID,38.409,VALID,20.566,VALID,115.0,VALID,0.0,
2019-05-21, 07:03:06,VALID,917.539,VALID,0.0,VALID,96.819,VALID,38.459,VALID,20.606,VALID,121.0,VALID,0.0,
2019-05-21, 07:04:06,VALID,917.566,VALID,0.0,VALID,96.477,VALID,38.485,VALID,20.629,VALID,126.0,VALID,0.0,
2019-05-21, 07:05:06,VALID,917.567,VALID,0.0,VALID,96.33,VALID,38.508,VALID,20.658,VALID,117.0,VALID,0.0,
2019-05-21, 07:06:06,VALID,917.565,VALID,0.0,VALID,96.379,VALID,38.632,VALID,20.668,VALID,118.0,VALID,0.0,
2019-05-21, 07:07:06,VALID,917.573,VALID,0.0,VALID,96.292,VALID,38.911,VALID,20.668,VALID,120.0,VALID,0.0,
2019-05-21, 07:08:06,VALID,917.578,VALID,0.0,VALID,96.213,VALID,39.434,VALID,20.68,VALID,118.0,VALID,0.0,
2019-05-21, 07:09:06,VALID,917.601,VALID,0.0,VALID,96.313,VALID,40.386,VALID,20.717,VALID,112.0,VALID,0.0,
2019-05-21, 07:10:06,VALID,917.582,VALID,0.0,VALID,96.389,VALID,41.669,VALID,20.732,VALID,115.0,VALID,0.0,
2019-05-21, 07:11:06,VALID,917.583,VALID,0.0,VALID,96.455,VALID,43.212,VALID,20.74,VALID,105.0,VALID,0.0,
2019-05-21, 07:12:06,VALID,917.591,VALID,0.0,VALID,96.607,VALID,45.083,VALID,20.763,VALID,106.0,VALID,0.0,
2019-05-21, 07:13:06,VALID,917.577,VALID,0.0,VALID,96.636,VALID,47.165,VALID,20.793,VALID,81.0,VALID,0.0,
2019-05-21, 07:14:06,VALID,917.588,VALID,0.0,VALID,96.625,VALID,49.291,VALID,20.803,VALID,88.0,VALID,0.0,
2019-05-21, 07:15:06,VALID,917.585,VALID,0.0,VALID,96.575,VALID,51.531,VALID,20.809,VALID,91.0,VALID,0.0,
2019-05-21, 07:16:06,VALID,917.602,VALID,0.0,VALID,96.477,VALID,53.68,VALID,20.802,VALID,100.0,VALID,0.0,
2019-05-21, 07:17:06,VALID,917.61,VALID,0.0,VALID,96.286,VALID,55.85,VALID,20.816,VALID,110.0,VALID,0.0,
2019-05-21, 07:18:06,VALID,917.631,VALID,0.0,VALID,96.324,VALID,57.828,VALID,20.845,VALID,121.0,VALID,0.0,
2019-05-21, 07:19:06,VALID,917.605,VALID,0.0,VALID,95.995,VALID,59.428,VALID,20.841,VALID,131.0,VALID,0.0,
2019-05-21, 07:20:06,VALID,917.658,VALID,0.0,VALID,95.653,VALID,60.368,VALID,20.871,VALID,131.0,VALID,0.0,
2019-05-21, 07:21:06,VALID,917.666,VALID,0.0,VALID,95.698,VALID,60.765,VALID,20.908,VALID,128.0,VALID,0.0,
2019-05-21, 07:22:06,VALID,917.691,VALID,0.0,VALID,95.677,VALID,60.799,VALID,20.914,VALID,132.0,VALID,0.0,
2019-05-21, 07:23:06,VALID,917.721,VALID,0.0,VALID,95.659,VALID,60.566,VALID,20.913,VALID,131.0,VALID,0.0,
2019-05-21, 07:24:06,VALID,917.771,VALID,0.0,VALID,95.454,VALID,60.431,VALID,20.878,VALID,131.0,VALID,0.0,
2019-05-21, 07:25:06,VALID,917.807,VALID,0.0,VALID,95.463,VALID,60.636,VALID,20.882,VALID,139.0,VALID,0.0,
2019-05-21, 07:26:06,VALID,917.838,VALID,0.0,VALID,95.519,VALID,61.229,VALID,20.88,VALID,133.0,VALID,0.0,
2019-05-21, 07:27:06,VALID,917.885,VALID,0.0,VALID,95.532,VALID,62.409,VALID,20.906,VALID,148.0,VALID,0.0,
2019-05-21, 07:28:06,VALID,917.906,VALID,0.0,VALID,95.557,VALID,64.057,VALID,20.898,VALID,141.0,VALID,0.0,
2019-05-21, 07:29:06,VALID,917.953,VALID,0.0,VALID,95.568,VALID,66.16,VALID,20.9,VALID,131.0,VALID,0.0,
2019-05-21, 07:30:06,VALID,917.976,VALID,0.0,VALID,95.509,VALID,68.741,VALID,20.88,VALID,121.0,VALID,0.0,
2019-05-21, 07:31:06,VALID,917.984,VALID,0.0,VALID,95.557,VALID,71.622,VALID,20.865,VALID,117.0,VALID,0.0,
2019-05-21, 07:32:06,VALID,917.987,VALID,0.0,VALID,95.775,VALID,74.642,VALID,20.88,VALID,108.0,VALID,0.0,
2019-05-21, 07:33:06,VALID,918.016,VALID,0.0,VALID,95.742,VALID,77.798,VALID,20.896,VALID,107.0,VALID,0.0,
2019-05-21, 07:34:06,VALID,918.019,VALID,0.0,VALID,95.547,VALID,81.152,VALID,20.938,VALID,103.0,VALID,0.0,
2019-05-21, 07:35:06,VALID,918.038,VALID,0.0,VALID,95.356,VALID,85.097,VALID,20.984,VALID,109.0,VALID,0.0,
2019-05-21, 07:36:06,VALID,918.052,VALID,0.0,VALID,95.009,VALID,89.695,VALID,21.041,VALID,112.0,VALID,0.0,
2019-05-21, 07:37:06,VALID,918.054,VALID,0.0,VALID,94.931,VALID,94.835,VALID,21.1,VALID,112.0,VALID,0.0,
2019-05-21, 07:38:06,VALID,918.077,VALID,0.0,VALID,94.658,VALID,100.299,VALID,21.141,VALID,109.0,VALID,0.0,
2019-05-21, 07:39:06,VALID,918.075,VALID,0.0,VALID,94.248,VALID,105.327,VALID,21.183,VALID,108.0,VALID,0.0,
2019-05-21, 07:40:06,VALID,918.05,VALID,0.0,VALID,94.315,VALID,109.639,VALID,21.234,VALID,103.0,VALID,0.0,
2019-05-21, 07:41:06,VALID,918.08,VALID,0.0,VALID,93.865,VALID,113.398,VALID,21.266,VALID,100.0,VALID,0.0,
2019-05-21, 07:42:06,VALID,918.074,VALID,0.0,VALID,93.799,VALID,116.444,VALID,21.312,VALID,102.0,VALID,0.0,
2019-05-21, 07:43:06,VALID,918.096,VALID,0.0,VALID,93.625,VALID,118.634,VALID,21.365,VALID,106.0,VALID,0.0,
2019-05-21, 07:44:06,VALID,918.102,VALID,0.0,VALID,93.763,VALID,120.458,VALID,21.42,VALID,101.0,VALID,0.0,
2019-05-21, 07:45:06,VALID,918.105,VALID,0.0,VALID,93.098,VALID,121.575,VALID,21.467,VALID,105.0,VALID,0.0,
2019-05-21, 07:46:06,VALID,918.111,VALID,0.0,VALID,93.536,VALID,122.871,VALID,21.528,VALID,121.0,VALID,0.0,
2019-05-21, 07:47:06,VALID,918.102,VALID,0.0,VALID,93.042,VALID,125.317,VALID,21.536,VALID,116.0,VALID,0.0,
2019-05-21, 07:48:06,VALID,918.103,VALID,0.0,VALID,92.98,VALID,128.696,VALID,21.568,VALID,123.0,VALID,0.0,
2019-05-21, 07:49:06,VALID,918.098,VALID,0.0,VALID,92.597,VALID,133.209,VALID,21.577,VALID,121.0,VALID,0.0,
2019-05-21, 07:50:06,VALID,918.089,VALID,0.0,VALID,92.122,VALID,138.542,VALID,21.533,VALID,108.0,VALID,0.0,
2019-05-21, 07:51:06,VALID,918.091,VALID,0.0,VALID,93.107,VALID,144.662,VALID,21.554,VALID,117.0,VALID,0.0,
2019-05-21, 07:52:06,VALID,918.104,VALID,0.0,VALID,93.168,VALID,156.496,VALID,21.6,VALID,126.0,VALID,0.0,
2019-05-21, 07:53:06,VALID,918.108,VALID,0.0,VALID,93.197,VALID,194.33,VALID,21.671,VALID,110.0,VALID,0.0,
2019-05-21, 07:54:06,VALID,918.127,VALID,0.0,VALID,93.068,VALID,208.858,VALID,21.767,VALID,96.0,VALID,0.0,
2019-05-21, 07:55:06,VALID,918.129,VALID,0.0,VALID,92.74,VALID,228.184,VALID,21.903,VALID,122.0,VALID,0.0,
2019-05-21, 07:56:06,VALID,918.166,VALID,0.0,VALID,90.405,VALID,292.822,VALID,22.024,VALID,125.0,VALID,0.0,
2019-05-21, 07:57:06,VALID,918.179,VALID,0.0,VALID,90.811,VALID,273.546,VALID,22.161,VALID,107.0,VALID,0.0,
2019-05-21, 07:58:06,VALID,918.182,VALID,0.0,VALID,91.106,VALID,195.29,VALID,22.332,VALID,105.0,VALID,0.0,
2019-05-21, 07:59:06,VALID,918.185,VALID,0.0,VALID,89.864,VALID,200.131,VALID,22.464,VALID,98.0,VALID,0.0,
2019-05-21, 08:00:06,VALID,918.225,VALID,0.0,VALID,88.695,VALID,182.358,VALID,22.551,VALID,104.0,VALID,0.0,
2019-05-21, 08:01:06,VALID,918.253,VALID,0.0,VALID,89.747,VALID,209.126,VALID,22.71,VALID,76.0,VALID,0.0,
2019-05-21, 08:02:06,VALID,918.235,VALID,0.2,VALID,87.828,VALID,313.019,VALID,22.799,VALID,96.0,VALID,0.0,
2019-05-21, 08:03:06,VALID,918.246,VALID,0.0,VALID,87.994,VALID,372.947,VALID,22.928,VALID,87.0,VALID,0.0,
2019-05-21, 08:04:06,VALID,918.26,VALID,0.0,VALID,87.427,VALID,372.331,VALID,23.199,VALID,84.0,VALID,0.0,
2019-05-21, 08:05:06,VALID,918.258,VALID,0.0,VALID,87.293,VALID,341.619,VALID,23.537,VALID,85.0,VALID,0.0,
2019-05-21, 08:06:06,VALID,918.275,VALID,0.0,VALID,85.584,VALID,300.934,VALID,23.856,VALID,104.0,VALID,0.0,
2019-05-21, 08:07:06,VALID,918.261,VALID,0.0,VALID,84.875,VALID,273.045,VALID,24.034,VALID,152.0,VALID,0.0,
2019-05-21, 08:08:06,VALID,918.286,VALID,0.0,VALID,83.71,VALID,358.772,VALID,24.172,VALID,124.0,VALID,0.0,
2019-05-21, 08:09:06,VALID,918.275,VALID,0.0,VALID,82.338,VALID,351.656,VALID,24.193,VALID,178.0,VALID,0.0,
2019-05-21, 08:10:06,VALID,918.277,VALID,0.0,VALID,83.835,VALID,365.71,VALID,24.04,VALID,272.0,VALID,0.0,
2019-05-21, 08:11:06,VALID,918.272,VALID,0.0,VALID,84.232,VALID,365.554,VALID,24.147,VALID,22.0,VALID,0.0,
2019-05-21, 08:12:06,VALID,918.304,VALID,0.0,VALID,82.391,VALID,363.783,VALID,24.322,VALID,38.0,VALID,0.0,
2019-05-21, 08:13:06,VALID,918.315,VALID,0.0,VALID,83.602,VALID,358.091,VALID,24.423,VALID,43.0,VALID,0.0,
2019-05-21, 08:14:06,VALID,918.315,VALID,0.0,VALID,82.184,VALID,352.578,VALID,24.744,VALID,73.0,VALID,0.0,
2019-05-21, 08:15:06,VALID,918.354,VALID,0.0,VALID,79.298,VALID,349.81,VALID,24.833,VALID,93.0,VALID,0.0,
2019-05-21, 08:16:06,VALID,918.377,VALID,0.0,VALID,78.787,VALID,349.132,VALID,24.897,VALID,97.0,VALID,0.0,
2019-05-21, 08:17:06,VALID,918.386,VALID,0.0,VALID,79.257,VALID,349.586,VALID,24.984,VALID,35.0,VALID,0.0,
2019-05-21, 08:18:06,VALID,918.415,VALID,0.0,VALID,79.904,VALID,351.156,VALID,24.785,VALID,242.0,VALID,0.0,
2019-05-21, 08:19:06,VALID,918.418,VALID,0.0,VALID,81.324,VALID,352.486,VALID,24.206,VALID,238.0,VALID,0.0,
2019-05-21, 08:20:06,VALID,918.448,VALID,0.0,VALID,84.001,VALID,350.061,VALID,23.688,VALID,233.0,VALID,0.0,
2019-05-21, 08:21:06,VALID,918.465,VALID,0.0,VALID,85.566,VALID,354.186,VALID,23.312,VALID,242.0,VALID,0.0,
2019-05-21, 08:22:06,VALID,918.469,VALID,0.0,VALID,87.163,VALID,355.395,VALID,23.052,VALID,250.0,VALID,0.0,
2019-05-21, 08:23:06,VALID,918.478,VALID,0.0,VALID,88.213,VALID,356.265,VALID,23.026,VALID,268.0,VALID,0.0,
2019-05-21, 08:24:06,VALID,918.485,VALID,0.0,VALID,87.167,VALID,361.638,VALID,23.192,VALID,315.0,VALID,0.0,
2019-05-21, 08:25:06,VALID,918.489,VALID,0.0,VALID,85.948,VALID,364.054,VALID,23.481,VALID,306.0,VALID,0.0,
2019-05-21, 08:26:06,VALID,918.495,VALID,0.0,VALID,84.204,VALID,369.864,VALID,23.8,VALID,307.0,VALID,0.0,
2019-05-21, 08:27:06,VALID,918.508,VALID,0.0,VALID,83.288,VALID,379.023,VALID,24.086,VALID,313.0,VALID,0.0,
2019-05-21, 08:28:06,VALID,918.509,VALID,0.0,VALID,82.313,VALID,385.847,VALID,24.358,VALID,314.0,VALID,0.0,
2019-05-21, 08:29:06,VALID,918.511,VALID,0.0,VALID,81.495,VALID,391.11,VALID,24.55,VALID,305.0,VALID,0.0,
2019-05-21, 08:30:06,VALID,918.513,VALID,0.0,VALID,81.293,VALID,393.516,VALID,24.626,VALID,284.0,VALID,0.0,
2019-05-21, 08:31:06,VALID,918.541,VALID,0.0,VALID,82.109,VALID,394.773,VALID,24.53,VALID,252.0,VALID,0.0,
2019-05-21, 08:32:06,VALID,918.539,VALID,0.0,VALID,82.595,VALID,395.103,VALID,24.433,VALID,244.0,VALID,0.0,
2019-05-21, 08:33:06,VALID,918.532,VALID,0.0,VALID,82.455,VALID,398.074,VALID,24.223,VALID,234.0,VALID,0.0,
2019-05-21, 08:34:06,VALID,918.553,VALID,0.0,VALID,83.304,VALID,402.856,VALID,24.005,VALID,228.0,VALID,0.0,
2019-05-21, 08:35:06,VALID,918.547,VALID,0.0,VALID,83.768,VALID,401.808,VALID,23.915,VALID,228.0,VALID,0.0,
2019-05-21, 08:36:06,VALID,918.534,VALID,0.0,VALID,83.914,VALID,417.076,VALID,23.978,VALID,239.0,VALID,0.0,
2019-05-21, 08:37:06,VALID,918.55,VALID,0.0,VALID,84.342,VALID,405.683,VALID,24.135,VALID,305.0,VALID,0.0,
2019-05-21, 08:38:06,VALID,918.537,VALID,0.0,VALID,82.756,VALID,422.29,VALID,24.496,VALID,298.0,VALID,0.0,
2019-05-21, 08:39:06,VALID,918.551,VALID,0.0,VALID,82.164,VALID,413.295,VALID,24.598,VALID,273.0,VALID,0.0,
2019-05-21, 08:40:06,VALID,918.553,VALID,0.0,VALID,82.346,VALID,435.231,VALID,24.455,VALID,233.0,VALID,0.0,
2019-05-21, 08:41:06,VALID,918.548,VALID,0.0,VALID,83.897,VALID,440.245,VALID,24.301,VALID,251.0,VALID,0.0,
2019-05-21, 08:42:06,VALID,918.555,VALID,0.0,VALID,85.074,VALID,423.03,VALID,24.288,VALID,269.0,VALID,0.0,
2019-05-21, 08:43:06,VALID,918.583,VALID,0.0,VALID,84.758,VALID,446.238,VALID,24.251,VALID,229.0,VALID,0.0,
2019-05-21, 08:44:06,VALID,918.582,VALID,0.0,VALID,85.048,VALID,461.02,VALID,24.048,VALID,243.0,VALID,0.0,
2019-05-21, 08:45:06,VALID,918.603,VALID,0.0,VALID,85.753,VALID,464.94,VALID,23.86,VALID,242.0,VALID,0.0,
2019-05-21, 08:46:06,VALID,918.614,VALID,0.0,VALID,85.957,VALID,451.178,VALID,23.747,VALID,244.0,VALID,0.0,
2019-05-21, 08:47:06,VALID,918.623,VALID,0.0,VALID,86.489,VALID,401.498,VALID,23.808,VALID,233.0,VALID,0.0,
2019-05-21, 08:48:06,VALID,918.628,VALID,0.0,VALID,85.526,VALID,359.873,VALID,23.892,VALID,244.0,VALID,0.0,
2019-05-21, 08:49:06,VALID,918.637,VALID,0.0,VALID,85.02,VALID,287.915,VALID,23.799,VALID,241.0,VALID,0.0,
2019-05-21, 08:50:06,VALID,918.648,VALID,0.0,VALID,85.892,VALID,462.893,VALID,23.782,VALID,264.0,VALID,0.0,
2019-05-21, 08:51:06,VALID,918.651,VALID,0.0,VALID,85.997,VALID,462.268,VALID,23.951,VALID,258.0,VALID,0.0,
2019-05-21, 08:52:06,VALID,918.653,VALID,0.0,VALID,85.664,VALID,464.727,VALID,24.119,VALID,258.0,VALID,0.0,
2019-05-21, 08:53:06,VALID,918.667,VALID,0.0,VALID,85.13,VALID,431.214,VALID,24.147,VALID,258.0,VALID,0.0,
2019-05-21, 08:54:06,VALID,918.677,VALID,0.0,VALID,85.785,VALID,195.661,VALID,24.178,VALID,243.0,VALID,0.0,
2019-05-21, 08:55:06,VALID,918.697,VALID,0.0,VALID,85.077,VALID,196.974,VALID,24.118,VALID,232.0,VALID,0.0,
2019-05-21, 08:56:06,VALID,918.725,VALID,0.0,VALID,84.801,VALID,131.016,VALID,24.011,VALID,231.0,VALID,0.0,
2019-05-21, 08:57:06,VALID,918.738,VALID,0.0,VALID,86.134,VALID,130.114,VALID,24.041,VALID,195.0,VALID,0.0,
2019-05-21, 08:58:06,VALID,918.758,VALID,0.0,VALID,84.784,VALID,138.786,VALID,24.206,VALID,243.0,VALID,0.0,
2019-05-21, 08:59:06,VALID,918.78,VALID,0.0,VALID,83.364,VALID,174.99,VALID,24.363,VALID,350.0,VALID,0.0,
2019-05-21, 09:00:06,VALID,918.794,VALID,0.0,VALID,82.08,VALID,200.861,VALID,24.56,VALID,356.0,VALID,0.0,
2019-05-21, 09:01:06,VALID,918.813,VALID,0.0,VALID,81.189,VALID,192.079,VALID,24.704,VALID,44.0,VALID,0.0,
2019-05-21, 09:02:06,VALID,918.834,VALID,0.0,VALID,80.927,VALID,155.933,VALID,24.798,VALID,137.0,VALID,0.0,
2019-05-21, 09:03:06,VALID,918.838,VALID,0.0,VALID,81.13,VALID,159.551,VALID,24.762,VALID,135.0,VALID,0.0,
2019-05-21, 09:04:06,VALID,918.854,VALID,0.0,VALID,81.583,VALID,185.449,VALID,24.795,VALID,107.0,VALID,0.0,
2019-05-21, 09:05:06,VALID,918.871,VALID,0.0,VALID,82.582,VALID,187.023,VALID,24.691,VALID,172.0,VALID,0.0,
2019-05-21, 09:06:06,VALID,918.859,VALID,0.0,VALID,83.364,VALID,202.512,VALID,24.471,VALID,188.0,VALID,0.0,
2019-05-21, 09:07:06,VALID,918.877,VALID,0.0,VALID,83.207,VALID,326.374,VALID,24.357,VALID,179.0,VALID,0.0,
2019-05-21, 09:08:06,VALID,918.875,VALID,0.0,VALID,83.989,VALID,291.984,VALID,24.244,VALID,178.0,VALID,0.0,
2019-05-21, 09:09:06,VALID,918.906,VALID,0.0,VALID,85.262,VALID,212.232,VALID,24.096,VALID,177.0,VALID,0.0,
2019-05-21, 09:10:06,VALID,918.876,VALID,0.0,VALID,86.094,VALID,200.734,VALID,24.023,VALID,201.0,VALID,0.0,
2019-05-21, 09:11:06,VALID,918.895,VALID,0.0,VALID,85.837,VALID,186.707,VALID,24.035,VALID,176.0,VALID,0.0,
2019-05-21, 09:12:06,VALID,918.884,VALID,0.0,VALID,85.615,VALID,171.615,VALID,24.007,VALID,197.0,VALID,0.0,
2019-05-21, 09:13:06,VALID,918.892,VALID,0.0,VALID,84.9,VALID,167.632,VALID,23.997,VALID,169.0,VALID,0.0,
2019-05-21, 09:14:06,VALID,918.905,VALID,0.0,VALID,85.283,VALID,170.277,VALID,24.057,VALID,175.0,VALID,0.0,
2019-05-21, 09:15:06,VALID,918.893,VALID,0.0,VALID,84.967,VALID,175.247,VALID,24.075,VALID,216.0,VALID,0.0,
2019-05-21, 09:16:06,VALID,918.886,VALID,0.0,VALID,84.834,VALID,177.044,VALID,24.038,VALID,222.0,VALID,0.0,
2019-05-21, 09:17:06,VALID,918.884,VALID,0.0,VALID,85.78,VALID,197.797,VALID,24.034,VALID,234.0,VALID,0.0,
2019-05-21, 09:18:06,VALID,918.872,VALID,0.0,VALID,85.275,VALID,172.375,VALID,24.098,VALID,283.0,VALID,0.0,
2019-05-21, 09:19:06,VALID,918.87,VALID,0.0,VALID,84.855,VALID,160.917,VALID,24.257,VALID,305.0,VALID,0.0,
2019-05-21, 09:20:06,VALID,918.875,VALID,0.0,VALID,82.759,VALID,165.774,VALID,24.376,VALID,321.0,VALID,0.0,
2019-05-21, 09:21:06,VALID,918.887,VALID,0.0,VALID,81.501,VALID,180.163,VALID,24.481,VALID,324.0,VALID,0.0,
2019-05-21, 09:22:06,VALID,918.898,VALID,0.0,VALID,83.159,VALID,181.895,VALID,24.539,VALID,293.0,VALID,0.0,
2019-05-21, 09:23:06,VALID,918.898,VALID,0.0,VALID,82.821,VALID,184.384,VALID,24.534,VALID,293.0,VALID,0.0,
2019-05-21, 09:24:06,VALID,918.917,VALID,0.0,VALID,83.246,VALID,200.333,VALID,24.553,VALID,285.0,VALID,0.0,
2019-05-21, 09:25:06,VALID,918.913,VALID,0.0,VALID,83.342,VALID,221.099,VALID,24.522,VALID,253.0,VALID,0.0,
2019-05-21, 09:26:06,VALID,918.913,VALID,0.0,VALID,83.422,VALID,236.287,VALID,24.423,VALID,245.0,VALID,0.0,
2019-05-21, 09:27:06,VALID,918.917,VALID,0.0,VALID,82.522,VALID,282.582,VALID,24.314,VALID,237.0,VALID,0.0,
2019-05-21, 09:28:06,VALID,918.91,VALID,0.0,VALID,83.546,VALID,293.183,VALID,24.295,VALID,233.0,VALID,0.0,
2019-05-21, 09:29:06,VALID,918.911,VALID,0.0,VALID,83.78,VALID,405.575,VALID,24.239,VALID,226.0,VALID,0.0,
2019-05-21, 09:30:06,VALID,918.914,VALID,0.0,VALID,81.315,VALID,383.258,VALID,24.166,VALID,229.0,VALID,0.0,
2019-05-21, 09:31:06,VALID,918.923,VALID,0.0,VALID,80.83,VALID,684.134,VALID,24.104,VALID,231.0,VALID,0.0,
2019-05-21, 09:32:06,VALID,918.925,VALID,0.0,VALID,80.792,VALID,750.655,VALID,24.173,VALID,235.0,VALID,0.0,
2019-05-21, 09:33:06,VALID,918.934,VALID,0.0,VALID,80.095,VALID,620.602,VALID,24.266,VALID,212.0,VALID,0.0,
2019-05-21, 09:34:06,VALID,918.944,VALID,0.0,VALID,79.632,VALID,452.501,VALID,24.437,VALID,201.0,VALID,0.0,
2019-05-21, 09:35:06,VALID,918.947,VALID,0.0,VALID,79.634,VALID,527.015,VALID,24.632,VALID,228.0,VALID,0.0,
2019-05-21, 09:36:06,VALID,918.972,VALID,0.0,VALID,80.673,VALID,665.66,VALID,24.726,VALID,243.0,VALID,0.0,
2019-05-21, 09:37:06,VALID,918.974,VALID,0.0,VALID,79.025,VALID,756.363,VALID,24.806,VALID,235.0,VALID,0.0,
2019-05-21, 09:38:06,VALID,918.966,VALID,0.0,VALID,79.187,VALID,774.616,VALID,24.993,VALID,241.0,VALID,0.0,
2019-05-21, 09:39:06,VALID,918.962,VALID,0.0,VALID,77.762,VALID,767.848,VALID,25.341,VALID,224.0,VALID,0.0,
2019-05-21, 09:40:06,VALID,918.957,VALID,0.0,VALID,76.319,VALID,776.302,VALID,25.547,VALID,157.0,VALID,0.0,
2019-05-21, 09:41:06,VALID,918.965,VALID,0.0,VALID,75.444,VALID,768.948,VALID,25.647,VALID,187.0,VALID,0.0,
2019-05-21, 09:42:06,VALID,918.959,VALID,0.0,VALID,75.812,VALID,764.671,VALID,25.782,VALID,140.0,VALID,0.0,
2019-05-21, 09:43:06,VALID,918.953,VALID,0.0,VALID,75.189,VALID,657.161,VALID,26.066,VALID,105.0,VALID,0.0,
2019-05-21, 09:44:06,VALID,918.936,VALID,0.0,VALID,73.437,VALID,757.894,VALID,26.248,VALID,72.0,VALID,0.0,
2019-05-21, 09:45:06,VALID,918.945,VALID,0.0,VALID,76.855,VALID,749.275,VALID,26.521,VALID,70.0,VALID,0.0,
2019-05-21, 09:46:06,VALID,918.948,VALID,0.0,VALID,75.046,VALID,629.985,VALID,26.987,VALID,58.0,VALID,0.0,
2019-05-21, 09:47:06,VALID,918.976,VALID,0.0,VALID,71.998,VALID,718.892,VALID,27.392,VALID,65.0,VALID,0.0,
2019-05-21, 09:48:06,VALID,918.987,VALID,0.0,VALID,69.788,VALID,696.988,VALID,27.673,VALID,46.0,VALID,0.0,
2019-05-21, 09:49:06,VALID,918.99,VALID,0.0,VALID,70.554,VALID,794.566,VALID,27.864,VALID,19.0,VALID,0.0,
2019-05-21, 09:50:06,VALID,919.006,VALID,0.0,VALID,71.014,VALID,415.73,VALID,27.856,VALID,358.0,VALID,0.0,
2019-05-21, 09:51:06,VALID,919.022,VALID,0.0,VALID,70.278,VALID,352.634,VALID,27.57,VALID,347.0,VALID,0.0,
2019-05-21, 09:52:06,VALID,919.046,VALID,0.0,VALID,70.255,VALID,288.085,VALID,27.119,INVALID,360.0,VALID,0.0,
2019-05-21, 09:53:06,VALID,919.048,VALID,0.0,VALID,72.567,VALID,282.108,VALID,26.695,INVALID,360.0,VALID,0.0,
2019-05-21, 09:54:06,VALID,919.058,VALID,0.0,VALID,75.261,VALID,306.594,VALID,26.301,INVALID,360.0,VALID,0.0,
2019-05-21, 09:55:06,VALID,919.052,VALID,0.0,VALID,73.863,VALID,363.135,VALID,26.043,INVALID,360.0,VALID,0.0,
2019-05-21, 09:56:06,VALID,919.048,VALID,0.0,VALID,74.906,VALID,506.535,VALID,25.959,INVALID,360.0,VALID,0.0,
2019-05-21, 09:57:06,VALID,919.033,VALID,0.0,VALID,76.296,VALID,772.187,VALID,25.901,INVALID,360.0,VALID,0.0,
2019-05-21, 09:58:06,VALID,919.033,VALID,0.0,VALID,77.107,VALID,830.025,VALID,25.992,INVALID,360.0,VALID,0.0,
2019-05-21, 09:59:06,VALID,919.018,VALID,0.0,VALID,76.036,VALID,693.665,VALID,26.233,VALID,305.0,VALID,0.0,
2019-05-21, 10:00:06,VALID,919.011,VALID,0.0,VALID,73.236,VALID,807.884,VALID,26.4,INVALID,360.0,VALID,0.0,
2019-05-21, 10:01:06,VALID,918.999,VALID,0.0,VALID,74.059,VALID,438.005,VALID,26.611,INVALID,360.0,VALID,0.0,
2019-05-21, 10:02:06,VALID,919.004,VALID,0.0,VALID,74.329,VALID,343.67,VALID,26.767,INVALID,360.0,VALID,0.0,
2019-05-21, 10:03:06,VALID,918.99,VALID,0.0,VALID,73.689,VALID,327.967,VALID,26.749,INVALID,360.0,VALID,0.0,
2019-05-21, 10:04:06,VALID,919.004,VALID,0.0,VALID,73.231,VALID,320.737,VALID,26.578,INVALID,360.0,VALID,0.0,
2019-05-21, 10:05:06,VALID,919.013,VALID,0.0,VALID,73.573,VALID,323.448,VALID,26.447,INVALID,360.0,VALID,0.0,
2019-05-21, 10:06:06,VALID,919.023,VALID,0.0,VALID,73.188,VALID,328.539,VALID,26.3,INVALID,360.0,VALID,0.0,
2019-05-21, 10:07:06,VALID,919.031,VALID,0.0,VALID,73.041,VALID,339.962,VALID,26.065,INVALID,360.0,VALID,0.0,
2019-05-21, 10:08:06,VALID,919.04,VALID,0.0,VALID,72.97,VALID,358.821,VALID,25.996,INVALID,360.0,VALID,0.0,
2019-05-21, 10:09:06,VALID,919.046,VALID,0.0,VALID,72.167,VALID,409.993,VALID,25.982,INVALID,360.0,VALID,0.0,
2019-05-21, 10:10:06,VALID,919.041,VALID,0.0,VALID,73.708,VALID,495.614,VALID,26.065,INVALID,360.0,VALID,0.0,
2019-05-21, 10:11:06,VALID,919.044,VALID,0.0,VALID,72.614,VALID,600.397,VALID,26.298,INVALID,360.0,VALID,0.0,
2019-05-21, 10:12:06,VALID,919.051,VALID,0.0,VALID,72.564,VALID,370.147,VALID,26.529,INVALID,360.0,VALID,0.0,
2019-05-21, 10:13:06,VALID,919.047,VALID,0.0,VALID,72.218,VALID,342.637,VALID,26.784,INVALID,360.0,VALID,0.0,
2019-05-21, 10:14:06,VALID,919.038,VALID,0.0,VALID,72.638,VALID,333.915,VALID,26.845,INVALID,360.0,VALID,0.0,
2019-05-21, 10:15:06,VALID,919.031,VALID,0.0,VALID,72.955,VALID,454.193,VALID,26.868,INVALID,360.0,VALID,0.0,
2019-05-21, 10:16:06,VALID,919.038,VALID,0.0,VALID,72.976,VALID,664.061,VALID,26.84,INVALID,360.0,VALID,0.0,
2019-05-21, 10:17:06,VALID,919.036,VALID,0.0,VALID,72.864,VALID,331.444,VALID,26.683,INVALID,360.0,VALID,0.0,
2019-05-21, 10:18:06,VALID,919.032,VALID,0.0,VALID,74.293,VALID,286.362,VALID,26.631,INVALID,360.0,VALID,0.0,
2019-05-21, 10:19:06,VALID,919.042,VALID,0.0,VALID,72.758,VALID,271.156,VALID,26.445,INVALID,360.0,VALID,0.0,
2019-05-21, 10:20:06,VALID,919.034,VALID,0.0,VALID,75.064,VALID,285.755,VALID,26.117,INVALID,360.0,VALID,0.0,
2019-05-21, 10:21:06,VALID,919.06,VALID,0.0,VALID,76.461,VALID,537.58,VALID,25.873,INVALID,360.0,VALID,0.0,
2019-05-21, 10:22:06,VALID,919.082,VALID,0.0,VALID,77.865,VALID,545.61,VALID,25.961,INVALID,360.0,VALID,0.0,
2019-05-21, 10:23:06,VALID,919.087,VALID,0.0,VALID,76.231,VALID,433.031,VALID,26.063,VALID,213.0,VALID,0.0,
2019-05-21, 10:24:06,VALID,919.105,VALID,0.0,VALID,74.204,VALID,369.766,VALID,25.992,VALID,183.0,VALID,0.0,
2019-05-21, 10:25:06,VALID,919.094,VALID,0.0,VALID,75.699,VALID,666.138,VALID,25.974,VALID,231.0,VALID,0.0,
2019-05-21, 10:26:06,VALID,919.075,VALID,0.0,VALID,77.042,VALID,682.274,VALID,25.97,VALID,241.0,VALID,0.0,
2019-05-21, 10:27:06,VALID,919.071,VALID,0.0,VALID,74.46,VALID,832.536,VALID,25.906,VALID,231.0,VALID,0.0,
2019-05-21, 10:28:06,VALID,919.05,VALID,0.0,VALID,75.601,VALID,536.872,VALID,25.922,VALID,277.0,VALID,0.0,
2019-05-21, 10:29:06,VALID,919.021,VALID,0.0,VALID,74.359,VALID,589.849,VALID,26.087,VALID,241.0,VALID,0.0,
2019-05-21, 10:30:06,VALID,919.006,VALID,0.0,VALID,74.373,VALID,808.943,VALID,26.015,VALID,232.0,VALID,0.0,
2019-05-21, 10:31:06,VALID,918.997,VALID,0.0,VALID,74.82,VALID,860.919,VALID,25.915,VALID,234.0,VALID,0.0,
2019-05-21, 10:32:06,VALID,918.978,VALID,0.0,VALID,74.712,VALID,890.853,VALID,26.009,VALID,186.0,VALID,0.0,
2019-05-21, 10:33:06,VALID,918.968,VALID,0.0,VALID,74.194,VALID,891.642,VALID,26.479,VALID,134.0,VALID,0.0,
2019-05-21, 10:34:06,VALID,918.951,VALID,0.0,VALID,72.785,VALID,887.797,VALID,26.809,VALID,227.0,VALID,0.0,
2019-05-21, 10:35:06,VALID,918.941,VALID,0.0,VALID,72.404,VALID,894.256,VALID,26.97,VALID,181.0,VALID,0.0,
2019-05-21, 10:36:06,VALID,918.931,VALID,0.0,VALID,70.892,VALID,881.685,VALID,26.973,VALID,175.0,VALID,0.0,
2019-05-21, 10:37:06,VALID,918.927,VALID,0.0,VALID,71.333,VALID,832.775,VALID,26.799,VALID,148.0,VALID,0.0,
2019-05-21, 10:38:06,VALID,918.923,VALID,0.0,VALID,71.969,VALID,789.396,VALID,26.774,VALID,107.0,VALID,0.0,